Weather Service Report


009 
ASUS44 KOUN 021210
RWROK 

WEATHER ROUNDUP FOR OKLAHOMA
NATIONAL WEATHER SERVICE NORMAN OK
700 AM CDT SUN AUG 02 2015

NOTE: "FAIR" INDICATES FEW OR NO CLOUDS BELOW 12,000 FEET WITH NO
      SIGNIFICANT WEATHER AND/OR OBSTRUCTIONS TO VISIBILITY.

OKZ001>007-009>012-014-015-017-021300-
NORTHWEST OKLAHOMA AND THE PANHANDLE
  
CITY           SKY/WX    TMP DP  RH WIND       PRES   REMARKS
GAGE           CLOUDY    72  69  90 S9        29.97S                  
6HR MIN TEMP:  71; 6HR MAX TEMP:  72;                                

GUYMON         CLOUDY    72  62  71 S7        29.96F                  
ENID/WOODRING  MOCLDY    70  68  94 CALM      29.94S                  
$$

OKZ016-021>023-033>039-044-045-021300-
SOUTHWEST OKLAHOMA
  
CITY           SKY/WX    TMP DP  RH WIND       PRES   REMARKS
LAWTON/REGL    CLOUDY    75  67  76 SW5       29.97S                  
6HR MIN TEMP:  74; 6HR MAX TEMP:  76;                                

LAWTON/FT SILL CLOUDY    76  68  77 SW7       29.96R                  
FREDERICK      CLOUDY    72  69  90 SE7       29.94F                  
CLINTON        MOCLDY    73  68  84 S8        30.00R                  
HOBART         MOCLDY    74  69  85 SW6       29.99R                  
ALTUS AFB      DRIZZLE   73  70  88 SE3       29.97R                  
$$

OKZ018>020-024>031-021300-
CENTRAL OKLAHOMA
  
CITY           SKY/WX    TMP DP  RH WIND       PRES   REMARKS
OKLAHOMA CITY  MOCLDY    73  70  90 SE3       29.97R                  
6HR MIN TEMP:  70; 6HR MAX TEMP:  74;                                

OKC/WILEY POST CLOUDY    75  67  76 S3        29.96S                  
OKC/TINKER AFB CLOUDY    73  66  77 SE5       29.96R                  
STILLWATER     CLOUDY    70  67  90 CALM      29.96R                  
GUTHRIE        CLOUDY    73  68  84 SE3       29.96R                  
$$

OKZ008-013-054>072-021300-
NORTHEAST OKLAHOMA
  
CITY           SKY/WX    TMP DP  RH WIND       PRES   REMARKS
TULSA          PTCLDY    73  67  81 CALM      29.95R                  
6HR MIN TEMP:  73; 6HR MAX TEMP:  77;                                

TULSA/JONES    CLEAR     69  67  93 CALM      29.96R                  
PONCA CITY     CLEAR     71  66  84 SE5       29.95S                  
BARTLESVILLE   PTCLDY    65  65 100 CALM      29.97R                  
MUSKOGEE       CLEAR     70  68  93 S7        29.97R                  
$$

OKZ032-040>043-046>053-073>077-021300-
SOUTH CENTRAL/SOUTHEAST OKLAHOMA
  
CITY           SKY/WX    TMP DP  RH WIND       PRES   REMARKS
ARDMORE/DWNTWN CLOUDY    77  61  57 S3        29.96R                  
MCALESTER      MOCLDY    72  64  76 CALM      29.98R                  
$$


Return to Home page


Western Regional Climate Center, wrcc@dri.edu